Flag for Lithuania Weather past 2 weeks in Kaunas, Lithuania

Now
57 °F

Cool.


Feels Like: 57 °F
Forecast: 56 / 81 °F
Wind: 3 mph from Northeast

Location: Kaunas

Current Time: Jul 24, 2014 at 1:39:34 AM

Latest Report: Jul 24, 2014 at 1:20 AM


Visibility: N/A

Pressure: 30.12 "Hg

Humidity: 72%

Dew point: 48 °F

Location of KaunasLocation

Historic Weather in Kaunas — Graph

°F

Kaunas temperature yesterday

Maximum temperature yesterday: 79 °F (at 4:20 PM)
Minimum temperature yesterday: 57 °F (at 4:50 AM)
Average temperature yesterday: 69 °F

Past Weeks' High & Low Weather Summary

 TemperatureHumidityPressure
High82 °F (Jul 9, 4:20 PM)100% (Jul 14, 2:50 AM)30.18 "Hg (Jul 14, 2:50 AM)
Low50 °F (Jul 14, 5:50 AM)30% (Jul 20, 1:50 PM)29.65 "Hg (Jul 13, 12:20 AM)
Average67 °F68%29.98 "Hg
* Reported Jul 9 12:20 AM — Jul 24 12:20 AM, Kaunas, Weather by CustomWeather, © 2014

Note: Actual official high and low records may vary slightly from our data, if they occured in-between our weather recording intervals... More about our weather records

Advertising

Kaunas weather history for previous 24 hours

 ConditionsComfort  
Time TempWeatherWind HumidityBarometerVisibility
12:20 AM
Jul 24
64 °FMild.2 mph52%30.12 "HgN/A
11:50 PM
Jul 23
64 °FClear.3 mph52%30.12 "Hg10 mi
11:20 PM64 °FClear.3 mph52%30.12 "Hg10 mi
10:50 PM66 °FClear.3 mph49%30.12 "Hg10 mi
10:20 PM66 °FPassing clouds.6 mph49%30.09 "HgN/A
9:50 PM68 °FSunny.5 mph46%30.09 "Hg10 mi
9:20 PM70 °FSunny.6 mph40%30.09 "Hg10 mi
8:50 PM72 °FSunny.6 mph41%30.09 "Hg10 mi
8:20 PM75 °FSunny.8 mph34%30.09 "Hg10 mi
7:50 PM75 °FSunny.9 mph36%30.09 "Hg10 mi
7:20 PM77 °FPassing clouds.8 mph34%30.09 "HgN/A
6:50 PM77 °FPassing clouds.10 mph34%30.09 "HgN/A
6:20 PM79 °FPassing clouds.10 mph32%30.09 "HgN/A
5:50 PM77 °FPassing clouds.14 mph34%30.09 "HgN/A
5:20 PM79 °FPassing clouds.10 mph32%30.09 "HgN/A
4:50 PM79 °FPassing clouds.10 mph30%30.09 "HgN/A
4:20 PM79 °FPassing clouds.13 mph32%30.09 "HgN/A
3:20 PM77 °FPassing clouds.14 mph36%30.09 "HgN/A
2:50 PM75 °FPassing clouds.12 mph39%30.12 "HgN/A
2:20 PM75 °FPassing clouds.13 mph41%30.12 "HgN/A
1:20 PM77 °FPassing clouds.10 mph39%30.12 "HgN/A
12:20 PM77 °FPassing clouds.10 mph39%30.12 "HgN/A
8:50 AM66 °FPassing clouds.9 mph60%30.12 "HgN/A
8:20 AM64 °FPassing clouds.8 mph64%30.12 "HgN/A
7:50 AM63 °FPassing clouds.8 mph68%30.12 "HgN/A
7:20 AM61 °FPassing clouds.6 mph68%30.12 "HgN/A
6:50 AM61 °FPassing clouds.7 mph68%30.12 "HgN/A
6:20 AM59 °FPassing clouds.6 mph72%30.12 "HgN/A
5:50 AM59 °FPassing clouds.5 mph72%30.12 "HgN/A
5:20 AM57 °FPassing clouds.6 mph77%30.12 "HgN/A
4:50 AM57 °FPassing clouds.6 mph77%30.09 "HgN/A
4:20 AM61 °FPassing clouds.7 mph68%30.09 "HgN/A
3:50 AM61 °FPassing clouds.6 mph68%30.09 "HgN/A
2:50 AM61 °FCool.5 mph68%30.09 "HgN/A
Weather by CustomWeather, © 2014

See weather overviewHow to use our weather pages